Location: Bernay
(48.6766°N, 2.9386°E)
Time: 01:53:44
(UTC+00:00)

SJ 16-02 - Pass Details

Date: 21 April 2026
Orbit: 582 x 592 km, 75.0° (Epoch: 19 May)

Event Time Altitude Azimuth Distance (km) Brightness Sun altitude
Rises 21:27:10 0° 345° (NNW) 2,825 5.9 -21.8°
Reaches altitude 10° 21:29:34 10° 355° (N) 1,919 4.7 -22.1°
Maximum altitude 21:33:28 33° 60° (ENE) 988 2.3 -22.4°
Enters shadow 21:33:35 33° 64° (ENE) 989 2.3 -22.5°
